Location: Newark
(25.0000°N, 73.5000°E)
Time: 19:55:05
(UTC+00:00)

Altair - Pass Details

Date: 09 March 2021
Orbit: 1501 x 1683 km, 47.2° (Epoch: 10 April)

Event Time Altitude Azimuth Distance (km) Brightness Sun altitude
Rises 18:44:14 0° 315° (NW) 4,720 10.3 -67.8°
Enters shadow 18:45:34 - 316° (NW) 4,297 10.1 -67.9°
Reaches altitude 10° 18:47:18 10° 318° (NW) 3,758 - -68.0°
Maximum altitude 18:56:51 70° 41° (NE) 1,691 - -68.7°
Drops below altitude 10° 19:06:46 10° 125° (SE) 3,892 - -69.1°
Sets 19:09:59 0° 127° (SE) 4,895 - -69.1°
